Regional Weather Roundup
Issued by NWS Wakefield, VA

Home | Current Version | Previous Version | Graphics & Text | Print | Product List | Glossary On
Versions: 1 2 3 4 5 6 7 8 9 10 11 12 13 14 15 16 17 18 19 20 21 22 23 24 25 26 27 28 29 30 31 32 33 34 35 36 37 38 39 40 41 42 43 44 45 46 47 48 49 50
000
ASUS41 KAKQ 230310
RWRAKQ

REGIONAL WEATHER ROUNDUP
NATIONAL WEATHER SERVICE WAKEFIELD VA
1100 PM EDT MON SEP 22 2014

Note: "fair" indicates few or no clouds below 12,000 feet with no
significant weather and/or obstructions to visibility. * = Denotes
station may not report precipitation (e.g., rain,snow,etc.),
thunder or fog.

VAZ042-051-052>054-056-230400-
NORTHERN VIRGINIA

CITY           SKY/WX    TMP DP  RH WIND       PRES   REMARKS
WASH NATIONAL  MOCLDY    62  42  47 N10       30.24R
DULLES         MOCLDY    56  44  64 NW6       30.24R
FORT BELVOIR   MOCLDY    59  45  58 VRB3      30.24R
QUANTICO       MOCLDY    61  46  57 N12G22    30.23R
FREDERICKSBRG* CLOUDY    61  48  62 N6        30.21R
STAFFORD*      CLOUDY    57  47  69 N7        30.26R
WARRENTON      MOCLDY    58  50  73 N3        30.23R
CULPEPER*      MOCLDY    55  46  71 N6        30.24R
MANASSAS*      MOCLDY    55  46  71 N3        30.24R
LEESBURG*      PTCLDY    54  48  82 NW3       30.26R
WINCHESTER     MOCLDY    52  41  66 NW5       30.25R
FRONT ROYAL*   MOCLDY    52  45  76 CALM      30.25R
LURAY*         MOCLDY    54  45  71 CALM      30.26R
$$

VAZ048-049-060>072-079>083-230400-
CENTRAL AND SOUTH CENTRAL VIRGINIA...AND NORTH CENTRAL NORTH CAROLINA

CITY           SKY/WX    TMP DP  RH WIND       PRES   REMARKS
RICHMOND       MOCLDY    64  46  52 N12       30.18R
CHESTERFIELD*  MOCLDY   N/A N/A N/A N7        30.19R
PETERSBURG*    MOCLDY    54  52  93 CALM      30.18S
HANOVER        CLOUDY    61  47  59 CALM      30.21R
TAPPAHANNOCK*  CLOUDY    60  46  58 N3        30.20R
CHARLOTTSVILLE MOCLDY    55  48  77 CALM      30.21R
ORANGE*        MOCLDY    59  45  58 N6        30.24R
LOUISA*        CLOUDY    59  46  63 NE5       30.21R
FARMVILLE*     MOCLDY    61  48  63 N7        30.18R
CREWE*         CLOUDY    61  49  65 N3        30.19R
FORT PICKETT*  CLOUDY    61  50  65 N6        30.19R
LUNENBURG*     CLOUDY    64  52  65 N7        30.18R
SOUTH HILL*    CLOUDY    63  63 100 CALM      30.22R
LAWRENCEVILLE* CLOUDY    61  57  86 CALM      30.17R
ROANOKE RAPIDS CLOUDY    61  59  94 CALM      30.15R
RALEIGH        CLOUDY    64  58  80 CALM      30.16R
$$

VAZ088>098-230400-
SOUTHEAST VIRGINIA

CITY           SKY/WX    TMP DP  RH WIND       PRES   REMARKS
NORFOLK        MOCLDY    70  54  56 N9        30.14R
VIRGINIA BEACH MOCLDY    65  54  67 N7        30.14R
NORFOLK NAVAL  MOCLDY    71  50  47 N15       30.16S
WEST POINT*    PTCLDY    61  49  64 N3        30.19R
NEWPORT NEWS   PTCLDY    65  53  65 N8        30.15S
LANGLEY AFB    PTCLDY    67  50  54 N10       30.15R
FORT EUSTIS    PTCLDY    65  48  52 N6        30.14R
WILLIAMSBURG*  PTCLDY    63  57  82 N3        30.17S
HR EXEC AP*    MOCLDY    57  54  88 CALM      30.17R
FRANKLIN*      MOCLDY    59  55  88 CALM      30.16R
WAKEFIELD      PTCLDY    59  55  87 CALM      30.17R
$$

VAZ020-022-025-037-045-230400-
WEST CENTRAL AND SOUTHWEST VIRGINIA

CITY           SKY/WX    TMP DP  RH WIND       PRES   REMARKS
STAUNTON*      MOCLDY    56  44  62 N8        30.26R
HOT SPRINGS VA PTCLDY    44  31  61 NW12      30.28S
LYNCHBURG      MOCLDY    60  50  69 N6        30.21R
DANVILLE       CLOUDY    64  51  62 N9        30.17R
SOUTH BOSTON*  NOT AVBL
MARTINSVILLE   MOCLDY    58  51  75 N5        30.21S
ROANOKE        MOCLDY    59  46  62 NW3       30.24R
BLACKSBURG     PTCLDY    50  48  93 W3        30.27R
DUBLIN*        CLEAR     52  47  81 CALM      30.26S
MARION*        CLEAR     48  46  94 CALM      30.29R
HILLSVILLE*    PTCLDY    49  46  89 N5        30.24F
RICHLANDS*     CLEAR     53  47  83 NE5       30.27R
WISE*          CLEAR     50  48  93 NE5       30.28R
ABINGDON*      CLEAR     55  49  81 E6        30.25S
$$

MDZ021>025-VAZ099-100-230400-
SOUTHERN MARYLAND AND THE DELMARVA PENINSULA

CITY           SKY/WX    TMP DP  RH WIND       PRES   REMARKS
PATUXENT RIVER MOCLDY    63  44  50 N13       30.20R
BAY BRIDGE APT   N/A     61  43  51 N13G18    30.21R
LEONARDTOWN    MOCLDY    61  43  51 CALM      30.21R
DOVER          PTCLDY    58  45  60 NW13      30.17R
GEORGETOWN     PTCLDY    59  47  64 VRB5      30.19R
EASTON         MOCLDY    62  47  58 N5        30.24
CAMBRIDGE      MOCLDY    64  46  52 NW10      30.18R
SALISBURY      PTCLDY    62  48  60 N6        30.18R
OCEAN CITY     CLEAR     59  49  69 N5        30.18R
WALLOPS ISLAND CLEAR     62  50  64 N8        30.18R
ACCOMACK*      PTCLDY    55  50  82 N6        30.16S
$$

NCZ012>017-030>032-230400-
EASTERN NORTH CAROLINA

CITY           SKY/WX    TMP DP  RH WIND       PRES   REMARKS
ELIZABETH CITY MOCLDY    67  60  78 N9        30.14R
AHOSKIE*       CLOUDY    62  57  84 CALM      30.15R
EDENTON*       MOCLDY    63  60  90 N3        30.14S
CURRITUCK*     MOCLDY    63  60  88 CALM      30.15S
KILL DEVIL HLS MOCLDY    69  58  66 NE5       30.12S
MANTEO         MOCLDY    69  58  70 NE8       30.13S
CAPE HATTERAS  MOCLDY    68  61  78 NE6       30.11S
TARBORO*       CLOUDY    64  61  90 CALM      30.15R
GOLDSBORO      CLOUDY    69  62  77 CALM      30.12R
WASHINGTON     CLOUDY    65  59  80 NE3       30.14R
GREENVILLE     CLOUDY    64  59  82 CALM      30.15R
NEW BERN       CLOUDY    68  62  81 CALM      30.13R
WILMINGTON     LGT RAIN  68  66  93 CALM      30.10S
$$

VAZ048-230400-
ELSEWHERE

CITY           SKY/WX    TMP DP  RH WIND       PRES   REMARKS
HARRISBURG PA  MOCLDY    59  41  51 NW16      30.21R
BALTIMORE      PTCLDY    56  43  61 NW3       30.22R
ANNAPOLIS      MOCLDY    62  46  55 MISG      30.22R
ANDREWS AFB    MOCLDY    58  44  57 N8        30.22R
WILMINGTON DE  PTCLDY    54  44  69 NW8       30.21R
PHILADELPHIA   MOCLDY    60  41  49 NW12      30.20R
WILDWOOD NJ*   PTCLDY    63  43  48 N15G23    30.18R
ATLANTIC CITY  PTCLDY    53  49  86 NW5       30.17R
HENDERSON NC   CLOUDY    61  57  88 CALM      30.16S
GREENSBORO     MOCLDY    62  51  67 NE5       30.18R
ROCKY MOUNT    CLOUDY    65  60  84 CALM      30.15R
FAYETTEVILLE   CLOUDY    66  62  87 N5        30.12S
CHARLOTTE      CLOUDY    63  56  78 N6        30.15S
$$

VAZ100-230400-
MARINE

STATION/POSITION TIME  TEMP    WIND        PRES    WAVE   SWELL
                       AIR SEA DIR/SP/G            HT/PER HT/PER
                 (UTC) (F)     (DEG/KT/KT) (MB)    (FT/S) (FT/S)
44066 TX TWR #4  0300   65 70  320/ 19/ 25 1019.1R   6/ 9   3/ 9
CAPE MAY NJ      0300   64 74  340/  1/  5 1020.9R
LEWES DE         0300   66 71  340/ 19/ 24 1021.3R
15NM E FENWICK I 0300   68 71              1020.8R   4/ 5
OCEAN-CITY-INLET 0300   64 72  350/ 11/ 15 1021.3R
WACHAPREAGUE VA  0300   62 74  360/  4/  5 1021.4S
THOMAS POINT MD  0300   62 72  350/ 14/ 17 1023.9R
GOOSES REEF MD   0300   65     360/ 17/ 21 1022.9R
COVE POINT MD    0300   64     350/ 21/ 23 1022.2R
SOLOMONS ISLAND  0300      75                N/A
BISHOPS HEAD MD  0300   63 69  340/  8/ 11 1021.5R
PINEY POINT MD   0300           20/ 13/ 15   N/A
POTOMAC MD       0300   66      10/ 14/ 19 1021.4R
CAMBRIDGE MD     0300   65 73  340/ 11/ 14 1022.0R
LEWISETTA VA     0300   65 73   10/ 13/ 19 1021.9R
RAPPAHANNOCK LGT 0300           10/ 21/ 23 1021.5F
STINGRAY PT      0300   70      10/ 16/ 19   N/A
YORK RVR RNG VA  0300   70      20/ 12/ 15 1020.6R
YORKTOWN VA      0300   68 76   10/  9/ 10 1020.9R
JAMESTOWN VA     0300   65      30/  4/  6   N/A
DOMINION TERM VA 0300   69      60/  2/  4 1021.0R
KIPTOPEKE VA     0300      78   30/  6/  9   N/A
CHES BAY BRIDGE  0300   71 75   10/ 11/ 15 1020.2R
CAPE HENRY VA    0300   70      20/ 14/ 15 1019.6R
CHESAPEAKE LGHT  0200   70     360/ 13/ 15 1021.1R
WILLOUBY STN VA  0300   71      10/ 10/ 12 1019.5S
S CRANEY ISL VA  0300           10/ 11/ 15 1020.4R
CAPE HENRY BUOY  0200      75                N/A     3/ 8
1ST LANDING BUOY 0300   71      30/ 12/ 14 1020.3R
CAPE CHARLES BUO 0300      74                N/A     3/10   2/10
OFFSHORE WE BUOY 0300      74                N/A     3/ 8   2/ 8
64NM E OF VA BCH 0300   72 76  360/ 16/ 17 1019.7R   3/ 8   2/ 8
DUCK PIER NC     0300   71 75   20/ 12/ 15 1019.5F
44100 DUCK FRF   0300      74                N/A     3/ 8
44056 DUCK FRF   0300                        N/A     2/ 8
OREGON INLET NC  0300   71 76   20/  9/ 12 1019.9S
DIAMOND SHLS NC  0300   74      10/ 14/ 19 1019.1R   4/ 7   2/ 7
CAPE LOOKOUT NC  0200   73      20/  8/ 10 1018.9R
$$



USA.gov is the U.S. government's official web portal to all federal, state and local government web resources and services.